SCP
5 4 4 5 6 6 4 3 3 2 2 3 2 1 1 1 1 1 1 1 2 2 2 2 2 1 1 2 2 2 1 1 2 2 2 2 2 2 2 2 2 3 3
4 4 4 5 6 6 5 4 3 2 2 2 2 1 1 1 1 1 1 1 1 2 2 2 2 1 1 2 2 2 2 2 2 2 2 2 2 2 2 2 2 2 2
4 4 4 5 6 6 5 4 3 3 2 2 2 1 1 1 1 1 1 1 1 1 2 2 1 2 2 1 1 1 1 1 2 2 2 2 2 2 2 2 2 2 2
3 3 4 4 6 6 5 4 3 3 3 2 2 2 1 1 1 1 1 1 1 1 1 1 1 1 1 1 1 1 1 1 2 2 2 2 2 2 2 2 2 2 2
3 3 3 4 5 6 5 4 4 3 3 2 2 2 1 1 1 0 0 1 1 1 1 1 1 1 1 1 1 1 1 1 2 2 2 2 2 2 2 2 2 2 2
3 3 3 4 4 5 5 5 4 3 3 3 2 2 1 1 1 1 1 1 1 2 2 1 1 1 1 1 1 1 1 2 2 2 2 2 2 2 2 2 2 2 2
2 2 2 3 4 4 5 5 4 3 3 3 2 1 1 1 1 1 1 1 1 2 2 1 2 2 1 1 1 1 1 2 2 2 2 2 2 2 2 2 3 2 2
1 1 2 2 3 4 4 5 5 4 3 3 2 1 1 1 1 1 1 1 1 2 2 2 2 2 2 2 1 1 1 2 2 2 2 2 2 2 2 2 2 2 2
1 1 1 1 2 2 3 4 5 5 4 3 2 1 1 1 1 0 1 1 1 1 1 2 2 2 2 2 1 1 1 1 2 2 2 2 2 2 2 2 2 2 2
1 1 1 1 1 1 2 3 4 5 5 4 2 1 1 0 0 0 0 0 1 1 1 1 1 2 2 1 1 1 1 1 1 1 2 2 2 2 2 2 2 2 2
1 1 1 1 1 1 1 1 2 3 4 4 3 2 1 0 0 0 0 0 0 0 0 1 1 1 1 1 1 1 1 1 1 1 1 2 2 2 2 2 2 2 2
1 0 0 1 1 1 1 1 1 2 3 3 3 2 1 1 0 0 0 0 0 0 0 0 1 1 1 1 1 1 1 1 1 1 1 1 1 2 2 2 2 2 2
0 0 0 0 1 1 1 2 2 2 2 3 3 3 2 1 1 0 0 0 0 0 0 0 0 0 0 1 0 0 1 1 1 1 1 1 1 1 1 2 1 2 2
1 1 0 1 1 1 1 2 2 2 2 2 3 3 2 2 2 1 1 0 0 0 0 0 0 0 0 0 0 0 0 0 1 0 0 0 1 1 1 1 1 1 1
1 1 1 1 1 1 1 1 2 2 2 2 3 3 2 2 2 2 1 0 0 0 0 0 0 0 0 0 0 0 0 0 0 0 0 0 0 1 1 1 1 1 1
1 1 2 1 1 1 1 1 1 2 2 2 3 2 2 2 2 2 1 1 0 0 0 0 0 0 0 0 0 0 0 0 0 0 0 0 0 0 1 1 1 1 1
1 2 2 1 1 1 1 1 1 2 2 2 2 2 2 2 2 1 1 0 0 0 0 0 0 0 0 0 0 0 0 0 0 0 0 0 0 0 0 0 0 0 0
1 1 1 1 1 1 1 1 1 2 2 2 2 1 1 1 1 1 0 0 0 0 0 0 0 0 0 0 0 0 0 0 0 0 0 0 0 0 0 0 0 0 0
1 1 0 1 1 1 1 1 1 2 2 1 1 1 1 0 0 0 0 0 0 0 0 0 0 0 0 0 0 0 0 0 0 0 0 0 0 0 0 0 0 0 0
0 0 0 0 0 0 1 1 1 1 1 1 1 1 0 0 0 0 0 0 0 0 0 0 0 0 0 0 0 0 0 0 0 0 0 0 0 0 0 0 0 0 0
0 0 0 0 0 0 0 0 0 0 1 1 1 0 0 0 0 0 0 0 0 0 0 0 0 0 0 0 0 0 0 0 0 0 0 0 0 0 0 0 0 0 0
0 0 0 0 0 0 0 0 0 0 0 0 0 0 0 0 0 0 0 0 0 0 0 0 0 0 0 0 0 0 0 0 0 0 1 1 1 0 0 0 0 0 0
0 0 0 0 0 0 0 0 0 0 0 0 0 0 0 0 0 0 0 0 0 0 0 0 0 0 0 0 0 0 0 0 0 1 1 1 1 0 0 0 0 0 0
0 0 0 0 0 0 0 0 0 0 0 0 0 0 0 0 0 0 0 0 0 0 0 0 0 0 0 0 0 0 0 0 0 0 1 1 0 0 0 0 0 0 0
0 0 0 0 0 0 0 0 0 0 0 0 0 0 0 0 0 0 0 0 0 0 0 0 0 0 0 0 0 0 0 0 0 0 0 0 0 0 0 0 0 0 0
0 0 0 0 0 0 0 0 0 0 0 0 0 0 0 0 0 0 0 0 0 0 0 0 0 0 0 0 0 0 0 0 0 0 0 0 0 0 0 0 0 0 0
Wind_Speed
1 1 1 1 1 1 1 1 1 1 2 2 2 3 3 3 3 3 3 6 6 7 7 7 7 8 8 8 8 8 9 9 9 9 9 10 10 10 11 11 11 11 11
2 2 2 2 2 2 2 2 2 2 2 2 2 3 3 3 3 4 3 4 7 7 8 8 8 8 8 8 8 8 9 9 9 10 10 10 10 10 11 12 12 12 12
3 3 2 2 2 2 1 1 1 1 2 2 3 3 3 3 3 4 4 3 4 7 8 9 8 8 7 7 7 8 9 9 10 10 11 11 11 11 11 12 12 13 12
3 3 2 2 2 1 1 1 1 1 2 2 2 3 3 3 4 4 3 3 3 3 5 8 7 7 7 8 8 9 9 10 10 10 10 10 11 12 12 12 12 13 13
3 3 2 2 2 1 1 2 1 1 2 2 3 3 3 3 3 3 4 4 4 4 3 5 7 7 8 8 9 10 10 10 9 9 10 10 10 10 11 12 12 13 13
2 2 2 2 1 1 1 1 1 1 2 2 2 2 2 2 2 3 4 3 3 3 3 3 4 5 8 8 9 9 10 10 10 10 10 10 10 10 10 11 12 12 13
2 2 2 1 1 2 2 2 1 1 1 1 0 2 2 2 2 2 2 2 3 3 3 3 3 3 4 7 8 9 10 10 10 10 10 10 9 9 10 11 11 12 13
2 2 2 1 1 1 1 1 1 1 1 0 1 0 2 2 2 2 1 2 2 2 3 3 3 3 3 3 5 9 9 10 11 11 10 9 9 9 10 10 11 11 12
1 1 2 1 1 2 1 2 2 2 1 1 1 1 1 2 2 2 2 2 2 2 3 3 3 4 4 4 4 7 9 9 10 11 11 10 9 9 10 11 11 11 11
1 1 1 2 2 2 2 2 2 2 2 1 1 1 2 1 1 2 2 2 2 3 3 3 3 4 4 4 5 7 9 9 10 11 11 10 10 10 10 10 11 11 11
1 1 0 1 1 2 2 2 2 2 2 2 1 1 1 1 2 2 3 3 3 3 3 3 3 3 4 4 4 6 8 8 9 9 10 10 11 11 11 11 11 12 12
1 1 1 1 1 1 2 2 2 2 2 2 1 1 1 1 2 2 3 3 4 3 4 3 3 3 3 4 5 7 8 8 8 9 10 10 11 11 11 12 12 13 13
1 2 1 1 1 2 2 2 2 2 2 2 2 2 2 2 2 2 2 3 3 3 3 3 3 3 3 3 4 8 7 7 8 9 9 10 11 12 12 12 12 12 12
1 1 1 1 1 1 1 1 1 2 2 2 3 3 2 3 2 2 2 2 3 3 3 4 3 3 3 3 5 7 6 7 8 8 8 9 10 10 11 11 10 10 10
1 1 1 1 1 1 1 1 1 2 2 2 2 2 2 2 2 2 2 2 2 3 4 4 3 3 3 3 5 5 5 7 8 8 7 7 8 9 9 10 10 10 10
1 1 1 1 1 1 1 1 2 2 2 2 2 2 2 2 2 2 2 2 3 3 4 3 3 4 4 4 5 5 6 8 8 8 7 7 7 8 8 8 9 10 10
1 1 1 1 1 2 2 1 2 2 2 2 1 2 2 2 2 1 1 1 2 2 4 4 3 3 4 5 5 4 4 4 4 6 7 7 7 7 7 8 8 9 10
1 1 1 1 1 2 2 2 2 2 2 2 2 2 2 1 2 2 1 2 2 3 3 5 4 3 4 5 5 5 4 4 4 5 6 7 7 7 7 7 8 8 9
1 1 1 1 2 2 2 2 2 2 2 2 1 1 2 1 2 2 2 2 2 2 2 3 4 3 3 3 4 4 5 4 4 5 5 5 6 7 7 7 7 8 8
0 1 1 1 2 2 2 2 1 1 1 1 1 1 2 2 3 3 2 3 2 2 2 2 3 3 3 3 3 3 4 3 4 4 4 4 5 6 7 7 8 8 8
0 1 1 2 2 2 2 1 1 1 1 2 2 2 2 3 3 2 2 3 2 2 2 2 3 3 3 3 3 2 4 4 4 3 3 3 3 3 4 6 6 7 7
1 1 1 1 2 2 3 2 1 1 1 1 2 3 3 2 3 4 4 3 2 3 3 3 3 4 5 4 3 3 3 3 4 2 2 4 3 4 4 4 4 5 6
1 1 1 1 2 3 3 2 1 1 0 1 2 2 2 3 3 3 4 4 3 4 4 4 5 5 5 4 3 4 4 4 4 3 3 4 3 4 3 3 4 5 5
0 0 1 1 1 3 3 2 2 1 1 1 2 2 2 3 3 3 3 3 4 4 4 3 4 5 5 5 4 4 4 4 5 3 2 3 3 3 3 3 4 5 4
1 1 1 1 2 3 3 2 2 1 1 3 3 2 3 3 5 4 2 3 5 5 5 4 5 5 5 5 3 2 2 3 4 3 1 2 3 3 3 3 3 3 4
0 0 1 1 1 2 3 3 2 1 1 2 3 3 4 4 5 4 2 3 4 5 5 5 5 5 4 4 3 3 3 3 3 3 1 2 2 2 2 2 1 2 2
Wind_Direction
203 235 243 233 232 226 223 238 266 272 268 255 237 229 237 240 239 237 249 248 243 239 238 236 236 239 239 239 238 238 238 238 236 232 230 227 226 226 224 222 221 219 218
200 210 227 231 229 223 223 219 219 242 254 255 258 250 243 241 241 241 243 254 251 244 239 240 242 245 241 239 240 240 238 240 241 239 235 231 228 229 228 227 225 224 221
206 208 219 229 232 221 225 235 237 241 251 251 255 257 252 242 235 239 243 245 251 249 245 242 244 244 242 242 239 241 242 242 245 245 241 236 230 230 231 229 228 227 224
204 205 216 230 233 216 210 228 230 243 254 255 256 261 258 253 246 241 239 243 244 249 253 252 245 243 244 248 246 244 244 243 243 243 243 241 239 235 234 232 230 228 226
204 200 217 228 214 199 212 230 218 221 249 263 258 251 255 253 253 248 245 244 241 241 245 255 250 248 250 253 252 251 248 245 243 241 241 240 240 239 235 233 231 229 225
200 199 217 228 204 201 224 226 235 233 240 256 274 274 269 262 257 250 251 248 241 239 243 251 253 256 255 256 256 254 251 249 248 245 243 240 238 236 237 235 231 228 225
206 201 225 221 198 210 226 221 220 247 266 269 311 303 297 275 268 259 253 248 246 245 242 245 247 249 257 260 261 259 256 252 249 248 247 244 239 235 235 235 234 231 227
218 203 205 223 216 213 220 206 190 200 252 194 172 264 318 323 303 282 272 249 261 261 258 259 254 250 252 253 263 263 261 259 254 250 250 250 244 238 237 237 236 235 231
248 220 207 213 220 199 206 214 199 188 218 237 183 171 178 249 296 303 277 268 283 278 272 268 262 264 262 258 262 265 265 265 260 255 252 249 245 240 238 238 239 239 235
272 229 197 199 213 216 219 221 194 199 187 226 244 228 222 214 228 293 296 277 279 280 282 281 277 272 269 264 262 265 266 267 265 262 258 252 244 242 240 238 237 238 239
320 287 222 210 216 222 231 225 198 187 186 197 208 223 238 250 232 231 278 295 295 279 277 273 271 271 271 267 263 267 268 264 263 264 262 255 248 244 242 241 239 237 237
338 343 322 258 239 235 234 227 209 191 194 192 198 199 202 213 227 220 251 279 284 282 276 265 263 268 271 272 273 283 276 269 261 260 260 257 253 250 247 246 243 242 239
317 316 317 284 255 245 236 220 212 219 211 208 216 221 219 230 225 221 235 269 280 286 284 270 258 267 274 276 279 287 282 281 272 265 262 257 254 251 249 247 246 243 240
253 261 267 273 274 262 245 219 226 244 232 232 239 233 234 242 227 217 211 235 285 286 282 278 279 268 280 276 278 283 281 279 275 271 267 261 255 249 246 243 242 241 238
264 261 246 258 291 288 269 239 249 262 250 235 238 235 236 250 240 230 216 209 225 276 283 275 278 282 287 282 286 285 279 277 275 269 265 260 257 252 247 241 237 235 233
287 292 297 288 294 300 297 275 266 266 250 245 226 231 246 255 256 246 230 221 214 232 268 274 269 286 295 295 296 291 281 284 278 274 267 260 254 252 249 246 241 235 233
287 294 296 300 310 317 317 301 283 278 262 266 254 234 255 259 264 266 247 232 227 224 258 281 280 290 288 292 302 300 291 282 278 275 273 266 259 255 252 247 246 243 236
262 263 303 328 319 315 305 290 286 291 270 271 275 269 277 285 280 272 261 256 248 233 242 276 290 292 282 290 301 302 303 296 285 279 275 268 259 253 253 250 246 245 241
319 339 346 321 312 309 305 297 281 278 278 281 284 273 277 288 291 291 286 278 270 270 250 263 283 287 289 303 315 311 309 298 291 290 279 270 264 257 256 252 248 244 241
250 321 306 297 305 315 318 318 330 345 345 342 325 302 285 263 265 278 285 279 276 284 279 276 282 292 291 303 310 309 310 303 297 297 286 282 272 266 262 257 250 244 237
251 288 313 330 332 325 323 341 349 8 8 354 345 331 303 296 296 281 279 274 269 269 278 281 286 292 292 303 304 297 295 303 292 282 287 288 285 278 269 260 251 243 238
333 352 338 342 348 341 352 2 21 27 13 352 328 323 314 314 327 323 314 302 269 253 257 260 272 281 283 283 288 288 293 302 298 288 280 288 284 279 270 256 251 247 238
359 353 341 4 345 333 348 353 11 85 45 308 305 313 322 332 334 322 327 331 320 295 257 245 260 266 271 269 275 284 280 277 277 289 283 282 283 278 277 268 248 243 240
316 337 330 333 333 336 352 7 19 50 358 323 306 297 302 307 312 320 319 326 317 305 289 271 256 266 270 271 258 264 272 282 281 280 261 271 281 277 288 282 271 246 231
322 301 305 343 355 335 346 2 28 27 357 332 323 318 305 303 308 321 324 314 314 310 309 306 296 289 287 287 280 278 283 282 289 291 261 259 278 284 288 284 276 253 239
236 326 352 354 344 330 341 358 21 49 356 330 328 328 327 322 320 327 310 299 303 304 315 320 321 317 307 296 284 252 252 265 283 286 270 256 275 284 284 277 294 303 289